Change the Weather History Date:

Friday, November 15, 2013

  Actual Average Record
Temperature  
Mean Temperature 61 °F -  
Max Temperature 62 °F - - ()
Min Temperature 60 °F - - ()
Degree Days  
Heating Degree Days 4    
Growing Degree Days 11 (Base 50)    
Moisture  
Dew Point 57 °F    
Average Humidity 86    
Maximum Humidity 94    
Minimum Humidity 77    
Precipitation  
Precipitation 0.00 in - - ()
Sea Level Pressure  
Sea Level Pressure 29.96 in    
Wind  
Wind Speed 9 mph ()    
Max Wind Speed 16 mph    
Max Gust Speed -    
Visibility 5.8 miles    
Events      
T = Trace of Precipitation, MM = Missing Value Source: Averaged Metar Reports

Daily Weather History Graph

Daily Weather History Graph

Search for Another Location

Airport or City:

Trip Planner

Search our weather history database for the weather conditions in past years. The results will help you decide how hot, cold, wet, or windy it might be!

Date:

Astronomy

Nov. 15, 2013 Rise Set
Actual Time 6:57 AM EET 5:08 PM EET
Civil Twilight 6:30 AM EET 5:35 PM EET
Nautical Twilight 5:58 AM EET 6:07 PM EET
Astronomical Twilight 5:27 AM EET 6:38 PM EET
Moon 3:51 PM EET (11/15) 4:37 AM EET (11/15)
Length of Visible Light 11h 05m
Length of Day
10h 10m
Waxing Gibbous, 95% of the Moon is Illuminated
Nov 15
Waxing Gibbous
Nov 17
Full
Nov 25
Last Quarter
Dec 3
New
Dec 9
First Quarter

Hourly Weather History & Observations

Time (EET) Temp. Dew Point Humidity Pressure Visibility Wind Dir Wind Speed Gust Speed Precip Events Conditions
7:50 AM 60.8 °F 59.0 °F 94% 29.92 in 6.2 mi North 6.9 mph - N/A   Scattered Clouds
8:50 AM 60.8 °F 55.4 °F 82% 29.92 in 6.2 mi North 8.1 mph - N/A   Mostly Cloudy
9:50 AM 60.8 °F 57.2 °F 88% 29.95 in 6.2 mi NNE 12.7 mph - N/A   Mostly Cloudy
10:20 AM 62.6 °F 57.2 °F 82% 29.95 in 6.2 mi NNE 16.1 mph - N/A   Scattered Clouds
10:50 AM 60.8 °F 57.2 °F 88% 29.95 in 6.2 mi NNE 10.4 mph - N/A   Scattered Clouds
11:20 AM 60.8 °F 57.2 °F 88% 29.95 in 6.2 mi North 6.9 mph - N/A   Scattered Clouds
11:50 AM 60.8 °F 57.2 °F 88% 29.95 in 6.2 mi North 9.2 mph - N/A   Scattered Clouds
12:20 PM 60.8 °F 57.2 °F 88% 29.95 in 6.2 mi NNE 9.2 mph - N/A   Scattered Clouds
12:50 PM 60.8 °F 57.2 °F 88% 29.95 in 6.2 mi NNE 9.2 mph - N/A   Mostly Cloudy
1:20 PM 60.8 °F 57.2 °F 88% 29.95 in 5.6 mi North 9.2 mph - N/A   Mostly Cloudy
1:50 PM 60.8 °F 57.2 °F 88% 29.95 in 5.0 mi North 11.5 mph - N/A   Mostly Cloudy
2:20 PM 60.8 °F 57.2 °F 88% 29.95 in 5.0 mi North 10.4 mph - N/A   Light Drizzle
2:50 PM 60.8 °F 57.2 °F 88% 29.95 in 5.0 mi North 10.4 mph - N/A   Mostly Cloudy
3:20 PM 60.8 °F 57.2 °F 88% 29.95 in 5.6 mi North 12.7 mph - N/A   Mostly Cloudy
3:50 PM 60.8 °F 57.2 °F 88% 29.95 in 5.6 mi North 10.4 mph - N/A   Scattered Clouds
4:20 PM 60.8 °F 57.2 °F 88% 29.98 in 5.6 mi North 6.9 mph - N/A   Mostly Cloudy
4:50 PM 60.8 °F 55.4 °F 82% 29.98 in 5.6 mi North 12.7 mph - N/A   Mostly Cloudy
5:20 PM 60.8 °F 55.4 °F 82% 30.01 in 5.6 mi North 11.5 mph - N/A   Mostly Cloudy
5:50 PM 60.8 °F 55.4 °F 82% 30.01 in 5.6 mi North 9.2 mph - N/A   Mostly Cloudy
6:50 PM 60.8 °F 57.2 °F 88% 30.01 in 5.6 mi NNW 9.2 mph - N/A   Scattered Clouds
7:50 PM 60.8 °F 53.6 °F 77% 30.04 in 5.6 mi NNW 9.2 mph - N/A   Scattered Clouds